Location: Stockholm
(59.3293°N, 18.0686°E)
Time: 01:00:47
(UTC+02:00)

ISS - Pass Details

Date: 29 March 2019
Orbit: 408 x 410 km, 51.6° (Epoch: 22 April)

Event Time Altitude Azimuth Distance (km) Brightness Sun altitude
Rises 20:05:36 0° 253° (WSW) 2,339 0.7 -13.1°
Reaches altitude 10° 20:07:59 10° 237° (WSW) 1,476 -0.7 -13.4°
Maximum altitude 20:10:34 21° 186° (S) 976 -2.2 -13.7°
Enters shadow 20:11:21 20° 165° (SSE) 1,031 -2.2 -13.7°
